Content
SEND FEEDBACK

United States of America Flag

MONTROSE, COLORADO


Home > North America > United States > Colorado
Elevation: 5759 feet     Latitude: 38 29N     Longitude: 107 53W

WEATHER
 
SELECT A DAY
Number of Records: 197,405;   Date Range: 1/1/95 - 3/22/16
 
SHARE

PRINT THIS DATA

[ ← Previous Day ]
WEATHER ALMANAC - JANUARY 30, 2013
[ Next Day → ]
[ °C ]   °F
Weather ElementAverageHighLow
Temperature23.8 °F28.9 °F (1:53 pm)15.1 °F (2:53 am)
Dewpoint15.5 °F24.1 °F (11:53 pm)9 °F (3:53 am)
Humidity71 %92 % (11:53 pm)58 % (1:53 pm)
Barometer30.23 in30.27 in (10:53 am)30.16 in (1:53 am)
Wind Speed4 mph9.2 mph (7:53 am)
Wind Gust32.2 mph (8:43 am)
Weather ElementAverage
Visibility10 mi
Wind DirectionSSE (146.7 °)

Weather ElementTotal
Precipitation---
Heating Degree Days43 (Base 65)
Averaged from 24 records on January 30, 2013
WEATHER CONDITIONS BREAKOUT
WIND DIRECTION BREAKOUT
WEATHER BY HOUR - JANUARY 30, 2013
[ °C ]   °F
Local TimeTemperatureDewpointHumidityBarometerVisibilityWind DirectionWind SpeedGust SpeedPrecipitationEventsConditions
1:53 AM17.1 °F12.9 °F84 %30.16 in10.0 miSSE (150°)5.8 mphClear
2:53 AM15.1 °F10.9 °F84 %30.20 in10.0 miSE (130°)4.6 mphClear
3:53 AM15.1 °F9.0 °F77 %30.22 in10.0 miSSE (150°)8.1 mphClear
4:53 AM16.0 °F9.0 °F74 %30.23 in10.0 miSE (140°)8.1 mphOvercast
5:53 AM18.0 °F10.0 °F71 %30.24 in10.0 miSSE (150°)8.1 mphOvercast
6:53 AM19.9 °F10.0 °F65 %30.25 in10.0 miSSE (160°)8.1 mphOvercast
7:53 AM19.9 °F10.9 °F68 %30.24 in10.0 miSE (140°)9.2 mphOvercast
8:43 AM21.2 °F10.4 °F63 %30.17 in10.0 miSSW (210°)5.8 mph32.2 mphOvercast
8:53 AM21.9 °F10.9 °F63 %30.26 in10.0 miSSW (200°)5.8 mphOvercast
9:53 AM21.9 °F16.0 °F78 %30.26 in10.0 miWest (280°)6.9 mphOvercast
10:53 AM24.1 °F15.1 °F69 %30.27 in10.0 miCalmOvercast
11:53 AM26.1 °F15.1 °F63 %30.23 in10.0 miCalmMostly Cloudy
12:53 PM28.0 °F16.0 °F61 %30.21 in10.0 miCalmOvercast
1:53 PM28.9 °F16.0 °F58 %30.21 in10.0 miNorth (350°)4.6 mphOvercast
2:53 PM28.9 °F16.0 °F58 %30.21 in10.0 miCalmOvercast
3:53 PM28.9 °F16.0 °F58 %30.22 in10.0 miNNW (330°)3.5 mphOvercast
4:53 PM28.9 °F17.1 °F61 %30.21 in10.0 miWest (270°)3.5 mphOvercast
5:53 PM28.0 °F18.0 °F66 %30.22 in10.0 miWest (270°)3.5 mphOvercast
6:53 PM28.0 °F19.0 °F69 %30.23 in10.0 miWNW (290°)3.5 mphOvercast
7:53 PM28.0 °F21.0 °F75 %30.24 in10.0 miWNW (290°)3.5 mphOvercast
8:53 PM28.0 °F21.9 °F78 %30.25 in10.0 miNorth (10°)3.5 mphOvercast
9:53 PM27.0 °F23.0 °F85 %30.25 in10.0 miCalmOvercast
10:53 PM27.0 °F23.0 °F85 %30.23 in10.0 miCalmOvercast
11:53 PM26.1 °F24.1 °F92 %30.24 in10.0 miCalmOvercast
Hourly data recorded from KMTJ, located miles away from Montrose, Colorado




STORIES FROM OUR PARTNERS